Simultaneous Nadir Overpasses (SNOs) Predictions

Prediction of SNOs between LANDSAT-8 and METOP-A Satellite Orbit:

Table of predicted SNOs for the next 14.0 days since TLE Epoch: 5/25/2018
Index Date (LANDSAT-8) Time (LANDSAT-8) Lat,Lon (LANDSAT-8) SZA (LANDSAT-8 ) Date (METOP-A) Time (METOP-A) Lat,Lon (METOP-A) SZA (METOP-A ) Distance(km) Time Diff (sec)
1 05/27/2018 02:33:29 -81.33, 4.04 117.50 05/27/2018 02:32:41 -81.33, 4.15 117.50 1.89 48
2 05/27/2018 03:22:55 81.33, 171.80 62.52 05/27/2018 03:23:21 81.34, 171.75 62.53 0.86 26
3 05/29/2018 22:07:42 -81.32, 70.44 117.96 05/29/2018 22:06:59 -81.33, 70.38 117.98 1.03 43
4 05/29/2018 22:57:07 81.35,-121.46 62.11 05/29/2018 22:57:38 81.34,-121.63 62.10 3.09 31
5 06/01/2018 17:41:54 -81.34, 137.19 118.32 06/01/2018 17:41:15 -81.34, 137.38 118.32 3.13 39
6 06/01/2018 18:31:20 81.34, -55.11 61.68 06/01/2018 18:31:55 81.34, -55.03 61.71 1.39 35
7 06/04/2018 13:16:06 -81.34,-156.46 118.70 06/04/2018 13:15:32 -81.34,-156.42 118.71 0.67 34
8 06/04/2018 14:05:32 81.34, 11.21 61.31 06/04/2018 14:06:12 81.34, 11.16 61.32 0.78 40
9 06/07/2018 08:50:19 -81.33, -90.13 119.02 06/07/2018 08:49:50 -81.33, -90.23 119.04 1.62 29




NCC Satellite Simultaneous Nadir Overpasses (SNOs) Prediction Service
